TimeMDT,TemperatureF,Dew PointF,Humidity,Sea Level PressureIn,VisibilityMPH,Wind Direction,Wind SpeedMPH,Gust SpeedMPH,PrecipitationIn,Events,Conditions,WindDirDegrees,DateUTC
12:53 AM,51.1,37.0,59,29.77,10.0,WSW,5.8,-,N/A,,Partly Cloudy,240,2013-06-20 06:53:00
1:53 AM,52.0,36.0,54,29.78,10.0,SW,10.4,-,N/A,,Mostly Cloudy,230,2013-06-20 07:53:00
2:53 AM,51.1,37.9,61,29.78,10.0,Calm,Calm,-,N/A,,Mostly Cloudy,0,2013-06-20 08:53:00
3:53 AM,50.0,39.9,68,29.80,10.0,NW,4.6,-,N/A,,Overcast,310,2013-06-20 09:53:00
4:53 AM,48.9,39.0,69,29.82,10.0,West,5.8,-,N/A,,Mostly Cloudy,270,2013-06-20 10:53:00
5:53 AM,48.0,39.9,74,29.84,10.0,SSE,6.9,-,N/A,,Mostly Cloudy,150,2013-06-20 11:53:00
6:53 AM,51.1,39.0,63,29.85,10.0,West,3.5,-,N/A,,Overcast,280,2013-06-20 12:53:00
7:53 AM,52.0,39.9,63,29.86,10.0,North,4.6,-,N/A,,Overcast,350,2013-06-20 13:53:00
8:53 AM,52.0,39.0,61,29.88,10.0,NNW,5.8,-,N/A,,Overcast,340,2013-06-20 14:53:00
9:53 AM,53.1,37.9,57,29.91,10.0,West,8.1,-,N/A,,Overcast,270,2013-06-20 15:53:00
10:53 AM,55.0,35.1,47,29.92,10.0,SW,9.2,-,N/A,,Overcast,230,2013-06-20 16:53:00
11:53 AM,55.0,34.0,45,29.95,10.0,WSW,13.8,24.2,N/A,,Overcast,250,2013-06-20 17:53:00
12:53 PM,57.0,37.0,47,29.95,10.0,SSE,6.9,-,N/A,,Mostly Cloudy,160,2013-06-20 18:53:00
1:53 PM,57.9,37.9,47,29.94,10.0,North,13.8,-,N/A,,Overcast,360,2013-06-20 19:53:00
2:03 PM,57.2,39.2,51,29.93,10.0,North,13.8,-,N/A,,Overcast,350,2013-06-20 20:03:00
2:53 PM,53.1,43.0,69,29.98,10.0,East,11.5,-,0.07,Rain,Light Rain,90,2013-06-20 20:53:00
3:53 PM,57.9,37.9,47,29.96,10.0,Variable,3.5,-,0.00,,Mostly Cloudy,0,2013-06-20 21:53:00
4:53 PM,55.9,43.0,62,29.96,10.0,North,8.1,-,0.01,Rain,Light Rain,10,2013-06-20 22:53:00
5:53 PM,59.0,43.0,55,29.97,10.0,North,4.6,-,0.01,Rain,Light Rain,350,2013-06-20 23:53:00
6:53 PM,57.9,43.0,58,29.97,10.0,East,3.5,-,0.00,,Scattered Clouds,80,2013-06-21 00:53:00
7:53 PM,57.0,46.9,69,30.00,10.0,Calm,Calm,-,0.01,,Overcast,0,2013-06-21 01:53:00
8:49 PM,57.2,41.0,55,30.01,10.0,SSW,5.8,-,N/A,Thunderstorm,Partly Cloudy,200,2013-06-21 02:49:00
8:53 PM,57.9,39.9,51,30.03,10.0,South,3.5,-,N/A,Thunderstorm,Scattered Clouds,170,2013-06-21 02:53:00
9:29 PM,50.0,42.8,76,30.03,4.0,West,5.8,16.1,0.04,Rain,Light Rain,260,2013-06-21 03:29:00
9:53 PM,48.9,43.0,80,30.07,10.0,WSW,10.4,-,0.04,,Mostly Cloudy,250,2013-06-21 03:53:00
10:53 PM,48.9,41.0,74,30.08,10.0,WSW,6.9,-,N/A,,Clear,250,2013-06-21 04:53:00
11:53 PM,48.0,42.1,80,30.09,10.0,West,3.5,-,N/A,,Overcast,270,2013-06-21 05:53:00